Liberia, Costa Rica

7:09 AM CST on February 24, 2018 (GMT -0600)
Daniel Oduber Quiros International

Weather History for MRLB - March, 2013

Change the Weather History Date:

Saturday, March 16, 2013

  Actual Average Record
Temperature  
Mean Temperature 84 °F -  
Max Temperature 93 °F 93 °F 98 °F (1998)
Min Temperature 75 °F 76 °F 64 °F (2009)
Cooling Degree Days 19    
Growing Degree Days 34 (Base 50)    
Moisture  
Dew Point 60 °F    
Average Humidity 42    
Maximum Humidity 65    
Minimum Humidity 22    
Precipitation  
Precipitation 0.00 in - - ()
Sea Level Pressure  
Sea Level Pressure 29.81 in    
Wind  
Wind Speed 17 mph ()    
Max Wind Speed 22 mph    
Max Gust Speed 32 mph    
Visibility 12.0 miles    
Events      
Averages and records for this station are not official NWS values.
T = Trace of Precipitation, MM = Missing Value Source: Averaged Metar Reports

Daily Weather History Graph

Daily Weather History Graph

Search for Another Location

Airport or City:

Trip Planner

Search our weather history database for the weather conditions in past years. The results will help you decide how hot, cold, wet, or windy it might be!

Date:

Astronomy

Mar. 16, 2013 Rise Set
Actual Time 5:48 AM CST 5:52 PM CST
Civil Twilight 5:27 AM CST 6:14 PM CST
Nautical Twilight 5:03 AM CST 6:38 PM CST
Astronomical Twilight 4:38 AM CST 7:02 PM CST
Moon 9:11 AM CST (3/16) 10:04 PM CST (3/16)
Length of Visible Light 12h 46m
Length of Day
12h 04m
Waxing Crescent, 23% of the Moon is Illuminated
Mar 16
Waxing Crescent
Mar 19
First Quarter
Mar 27
Full
Apr 2
Last Quarter
Apr 10
New

Hourly Weather History & Observations

Time (CST) Temp. Heat Index Dew Point Humidity Pressure Visibility Wind Dir Wind Speed Gust Speed Precip Events Conditions
6:00 AM 78 °F - 64 °F 52% 29.83 in 12 mi ENE 19.6 mph - -   Clear
6:00 AM 77.0 °F - 64.4 °F 65% 29.81 in - East 19.6 mph 32.2 mph N/A   Clear
7:00 AM 80.6 °F 81.8 °F 62.6 °F 54% 29.82 in - ENE 21.9 mph - N/A   Clear
8:00 AM 84.2 °F 84.4 °F 60.8 °F 45% 29.85 in - ENE 18.4 mph - N/A   Clear
9:00 AM 86 °F - 58 °F 29% 29.87 in 12 mi ENE 20.7 mph - -   Clear
9:00 AM 86.0 °F 85.4 °F 59.0 °F 40% 29.85 in - ENE 20.7 mph - N/A   Clear
10:00 AM 89.6 °F 88.1 °F 57.2 °F 33% 29.86 in - East 18.4 mph - N/A   Clear
11:00 AM 91.4 °F 89.9 °F 57.2 °F 31% 29.84 in - ENE 19.6 mph - N/A   Clear
12:00 PM 92 °F - 58 °F 22% 29.81 in 12 mi ENE 21.9 mph - -  
12:00 PM 91.4 °F 89.9 °F 57.2 °F 31% 29.80 in - ENE 21.9 mph - N/A   Clear
1:00 PM 93.2 °F 92.6 °F 59.0 °F 32% 29.77 in - ENE 18.4 mph 29.9 mph N/A   Clear
2:00 PM 93.2 °F 92.6 °F 59.0 °F 32% 29.75 in - ENE 18.4 mph - N/A   Clear
3:00 PM 93.2 °F 92.6 °F 59.0 °F 32% 29.73 in - East 18.4 mph - N/A   Clear
4:00 PM 91.4 °F 90.7 °F 59.0 °F 34% 29.72 in - East 20.7 mph - N/A   Clear
5:00 PM 87.8 °F 87.6 °F 60.8 °F 40% 29.75 in - NE 20.7 mph - N/A   Clear
6:00 PM 84.2 °F 85.0 °F 62.6 °F 48% 29.77 in - ENE 19.6 mph - N/A   Clear
7:00 PM 82.4 °F 83.4 °F 62.6 °F 51% 29.79 in - ENE 19.6 mph - N/A   Clear
8:00 PM 80.6 °F 81.8 °F 62.6 °F 54% 29.82 in - ENE 16.1 mph - N/A   Clear
9:00 PM 80.6 °F 81.8 °F 62.6 °F 54% 29.85 in - East 17.3 mph - N/A   Clear
10:00 PM 78.8 °F - 62.6 °F 57% 29.85 in - East 18.4 mph - N/A   Clear